Time,TemperatureF,DewpointF,PressureIn,WindDirection,WindDirectionDegrees,WindSpeedMPH,WindSpeedGustMPH,Humidity,HourlyPrecipIn,Conditions,Clouds,dailyrainin,SoftwareType,DateUTC
2013-03-05 00:00:00,29.3,18.7,30.05,NNW,328,0.0,0.0,64,0.00,,,0.00,WUHU216DAVISVP2,2013-03-05 05:00:00,
2013-03-05 00:05:00,29.4,18.8,30.05,NNW,328,0.0,0.0,64,0.00,,,0.00,WUHU216DAVISVP2,2013-03-05 05:05:00,
2013-03-05 00:10:00,29.4,18.8,30.05,NNW,328,0.0,0.0,64,0.00,,,0.00,WUHU216DAVISVP2,2013-03-05 05:10:00,
2013-03-05 00:15:00,29.4,18.8,30.05,NNW,328,0.0,0.0,64,0.00,,,0.00,WUHU216DAVISVP2,2013-03-05 05:15:00,
2013-03-05 00:20:00,29.4,18.8,30.05,NNW,328,0.0,0.0,64,0.00,,,0.00,WUHU216DAVISVP2,2013-03-05 05:20:00,
2013-03-05 00:25:00,29.5,19.2,30.05,NNW,328,0.0,0.0,65,0.00,,,0.00,WUHU216DAVISVP2,2013-03-05 05:25:00,
2013-03-05 00:30:00,30.0,19.4,30.05,NNW,328,0.0,1.0,64,0.00,,,0.00,WUHU216DAVISVP2,2013-03-05 05:30:00,
2013-03-05 00:35:00,30.4,20.1,30.05,NNW,328,0.0,1.0,65,0.00,,,0.00,WUHU216DAVISVP2,2013-03-05 05:35:00,
2013-03-05 00:40:00,30.9,20.6,30.05,NNW,328,0.0,0.0,65,0.00,,,0.00,WUHU216DAVISVP2,2013-03-05 05:40:00,
2013-03-05 00:45:00,31.2,20.9,30.05,NNW,328,0.0,0.0,65,0.00,,,0.00,WUHU216DAVISVP2,2013-03-05 05:45:00,
2013-03-05 00:50:00,31.5,21.2,30.05,NNW,328,0.0,0.0,65,0.00,,,0.00,WUHU216DAVISVP2,2013-03-05 05:50:00,
2013-03-05 00:55:00,31.8,21.4,30.05,NNW,328,0.0,0.0,65,0.00,,,0.00,WUHU216DAVISVP2,2013-03-05 05:55:00,
2013-03-05 01:00:00,32.1,21.7,30.04,NNW,328,0.0,0.0,65,0.00,,,0.00,WUHU216DAVISVP2,2013-03-05 06:00:00,
2013-03-05 01:05:00,32.4,22.4,30.04,NNW,328,0.0,0.0,66,0.00,,,0.00,WUHU216DAVISVP2,2013-03-05 06:05:00,
2013-03-05 01:10:00,32.7,22.7,30.04,NNW,328,0.0,0.0,66,0.00,,,0.00,WUHU216DAVISVP2,2013-03-05 06:10:00,
2013-03-05 01:15:00,32.9,22.9,30.05,NNW,328,0.0,0.0,66,0.00,,,0.00,WUHU216DAVISVP2,2013-03-05 06:15:00,
2013-03-05 01:20:00,33.2,22.8,30.05,NNW,328,0.0,0.0,65,0.00,,,0.00,WUHU216DAVISVP2,2013-03-05 06:20:00,
2013-03-05 01:25:00,33.4,23.0,30.05,NNW,328,0.0,0.0,65,0.00,,,0.00,WUHU216DAVISVP2,2013-03-05 06:25:00,
2013-03-05 01:30:00,33.7,23.6,30.05,NNW,328,0.0,0.0,66,0.00,,,0.00,WUHU216DAVISVP2,2013-03-05 06:30:00,
2013-03-05 01:35:00,33.8,23.7,30.05,NNW,328,0.0,0.0,66,0.00,,,0.00,WUHU216DAVISVP2,2013-03-05 06:35:00,
2013-03-05 01:40:00,34.0,23.5,30.05,NNW,328,0.0,0.0,65,0.00,,,0.00,WUHU216DAVISVP2,2013-03-05 06:40:00,
2013-03-05 01:45:00,34.1,24.0,30.05,NNW,328,0.0,0.0,66,0.00,,,0.00,WUHU216DAVISVP2,2013-03-05 06:45:00,
2013-03-05 01:50:00,34.3,24.2,30.05,NNW,328,0.0,0.0,66,0.00,,,0.00,WUHU216DAVISVP2,2013-03-05 06:50:00,
2013-03-05 01:55:00,34.4,24.3,30.05,NNW,328,0.0,0.0,66,0.00,,,0.00,WUHU216DAVISVP2,2013-03-05 06:55:00,
2013-03-05 02:00:00,34.4,24.3,30.05,NNW,328,0.0,0.0,66,0.00,,,0.00,WUHU216DAVISVP2,2013-03-05 07:00:00,
2013-03-05 02:05:00,34.6,24.5,30.05,NNW,328,0.0,0.0,66,0.00,,,0.00,WUHU216DAVISVP2,2013-03-05 07:05:00,
2013-03-05 02:10:00,34.6,24.5,30.05,NNW,328,0.0,0.0,66,0.00,,,0.00,WUHU216DAVISVP2,2013-03-05 07:10:00,
2013-03-05 02:15:00,34.7,24.9,30.05,NNW,328,0.0,0.0,67,0.00,,,0.00,WUHU216DAVISVP2,2013-03-05 07:15:00,
2013-03-05 02:20:00,34.9,25.1,30.05,NNW,328,0.0,0.0,67,0.00,,,0.00,WUHU216DAVISVP2,2013-03-05 07:20:00,
2013-03-05 02:25:00,34.9,24.8,30.05,NNW,328,0.0,0.0,66,0.00,,,0.00,WUHU216DAVISVP2,2013-03-05 07:25:00,
2013-03-05 02:30:00,35.0,24.9,30.04,NNW,328,0.0,0.0,66,0.00,,,0.00,WUHU216DAVISVP2,2013-03-05 07:30:00,
2013-03-05 02:35:00,35.2,24.7,30.04,NNW,328,0.0,0.0,65,0.00,,,0.00,WUHU216DAVISVP2,2013-03-05 07:35:00,
2013-03-05 02:40:00,35.3,24.8,30.04,NNW,328,0.0,0.0,65,0.00,,,0.00,WUHU216DAVISVP2,2013-03-05 07:40:00,
2013-03-05 02:45:00,35.3,25.1,30.04,NNW,328,0.0,0.0,66,0.00,,,0.00,WUHU216DAVISVP2,2013-03-05 07:45:00,
2013-03-05 02:50:00,35.5,25.3,30.04,NNW,328,0.0,0.0,66,0.00,,,0.00,WUHU216DAVISVP2,2013-03-05 07:50:00,
2013-03-05 02:55:00,35.8,26.0,30.04,NNW,328,0.0,0.0,67,0.00,,,0.00,WUHU216DAVISVP2,2013-03-05 07:55:00,
2013-03-05 03:00:00,36.0,26.2,30.05,NNW,328,0.0,0.0,67,0.00,,,0.00,WUHU216DAVISVP2,2013-03-05 08:00:00,
2013-03-05 03:05:00,36.2,26.4,30.05,NNW,328,0.0,0.0,67,0.00,,,0.00,WUHU216DAVISVP2,2013-03-05 08:05:00,
2013-03-05 03:10:00,36.3,26.5,30.05,NNW,328,0.0,0.0,67,0.00,,,0.00,WUHU216DAVISVP2,2013-03-05 08:10:00,
2013-03-05 03:15:00,36.5,26.7,30.05,NNW,328,0.0,0.0,67,0.00,,,0.00,WUHU216DAVISVP2,2013-03-05 08:15:00,
2013-03-05 03:20:00,36.6,27.1,30.05,NNW,328,0.0,0.0,68,0.00,,,0.00,WUHU216DAVISVP2,2013-03-05 08:20:00,
2013-03-05 03:25:00,36.9,27.0,30.05,NNW,328,0.0,0.0,67,0.00,,,0.00,WUHU216DAVISVP2,2013-03-05 08:25:00,
2013-03-05 03:30:00,36.9,27.0,30.05,NNW,328,0.0,0.0,67,0.00,,,0.00,WUHU216DAVISVP2,2013-03-05 08:30:00,
2013-03-05 03:35:00,37.0,27.1,30.05,NNW,328,0.0,0.0,67,0.00,,,0.00,WUHU216DAVISVP2,2013-03-05 08:35:00,
2013-03-05 03:40:00,37.0,27.1,30.05,NNW,328,0.0,0.0,67,0.00,,,0.00,WUHU216DAVISVP2,2013-03-05 08:40:00,
2013-03-05 03:45:00,37.0,27.5,30.05,NNW,328,0.0,0.0,68,0.00,,,0.00,WUHU216DAVISVP2,2013-03-05 08:45:00,
2013-03-05 03:50:00,37.2,27.7,30.05,NNW,328,0.0,0.0,68,0.00,,,0.00,WUHU216DAVISVP2,2013-03-05 08:50:00,
2013-03-05 03:55:00,37.2,27.3,30.05,NNW,328,0.0,0.0,67,0.00,,,0.00,WUHU216DAVISVP2,2013-03-05 08:55:00,
2013-03-05 04:00:00,37.2,27.3,30.05,NNW,328,0.0,0.0,67,0.00,,,0.00,WUHU216DAVISVP2,2013-03-05 09:00:00,
2013-03-05 04:05:00,37.2,27.3,30.05,NNW,328,0.0,0.0,67,0.00,,,0.00,WUHU216DAVISVP2,2013-03-05 09:05:00,
2013-03-05 04:10:00,37.3,27.8,30.05,NNW,328,0.0,0.0,68,0.00,,,0.00,WUHU216DAVISVP2,2013-03-05 09:10:00,
2013-03-05 04:15:00,37.3,27.4,30.05,NNW,328,0.0,0.0,67,0.00,,,0.00,WUHU216DAVISVP2,2013-03-05 09:15:00,
2013-03-05 04:20:00,37.3,27.4,30.05,NNW,328,0.0,0.0,67,0.00,,,0.00,WUHU216DAVISVP2,2013-03-05 09:20:00,
2013-03-05 04:25:00,37.3,27.4,30.05,NNW,328,0.0,0.0,67,0.00,,,0.00,WUHU216DAVISVP2,2013-03-05 09:25:00,
2013-03-05 04:30:00,37.3,27.4,30.04,NNW,328,0.0,0.0,67,0.00,,,0.00,WUHU216DAVISVP2,2013-03-05 09:30:00,
2013-03-05 04:35:00,37.3,27.4,30.04,NNW,328,0.0,0.0,67,0.00,,,0.00,WUHU216DAVISVP2,2013-03-05 09:35:00,
2013-03-05 04:40:00,37.2,27.7,30.04,NNW,328,0.0,0.0,68,0.00,,,0.00,WUHU216DAVISVP2,2013-03-05 09:40:00,
2013-03-05 04:45:00,37.2,27.3,30.04,NNW,328,0.0,0.0,67,0.00,,,0.00,WUHU216DAVISVP2,2013-03-05 09:45:00,
2013-03-05 04:50:00,37.2,27.3,30.04,NNW,328,0.0,0.0,67,0.00,,,0.00,WUHU216DAVISVP2,2013-03-05 09:50:00,
2013-03-05 04:55:00,37.2,27.3,30.04,NNW,328,0.0,0.0,67,0.00,,,0.00,WUHU216DAVISVP2,2013-03-05 09:55:00,
2013-03-05 05:00:00,37.2,27.3,30.05,NNW,328,0.0,0.0,67,0.00,,,0.00,WUHU216DAVISVP2,2013-03-05 10:00:00,
2013-03-05 05:05:00,37.0,26.8,30.05,NNW,328,0.0,0.0,66,0.00,,,0.00,WUHU216DAVISVP2,2013-03-05 10:05:00,
2013-03-05 05:10:00,37.0,26.8,30.05,NNW,328,0.0,0.0,66,0.00,,,0.00,WUHU216DAVISVP2,2013-03-05 10:10:00,
2013-03-05 05:15:00,37.0,27.1,30.05,NNW,328,0.0,0.0,67,0.00,,,0.00,WUHU216DAVISVP2,2013-03-05 10:15:00,
2013-03-05 05:20:00,37.0,27.1,30.05,NNW,328,0.0,0.0,67,0.00,,,0.00,WUHU216DAVISVP2,2013-03-05 10:20:00,
2013-03-05 05:25:00,37.0,27.1,30.05,NNW,328,0.0,0.0,67,0.00,,,0.00,WUHU216DAVISVP2,2013-03-05 10:25:00,
2013-03-05 05:30:00,37.0,27.1,30.05,NNW,328,0.0,0.0,67,0.00,,,0.00,WUHU216DAVISVP2,2013-03-05 10:30:00,
2013-03-05 05:35:00,36.9,27.0,30.05,NNW,328,0.0,0.0,67,0.00,,,0.00,WUHU216DAVISVP2,2013-03-05 10:35:00,
2013-03-05 05:40:00,36.9,27.0,30.05,NNW,328,0.0,0.0,67,0.00,,,0.00,WUHU216DAVISVP2,2013-03-05 10:40:00,
2013-03-05 05:45:00,36.9,27.0,30.06,NNW,328,0.0,0.0,67,0.00,,,0.00,WUHU216DAVISVP2,2013-03-05 10:45:00,
2013-03-05 05:50:00,36.9,27.4,30.06,NNW,328,0.0,0.0,68,0.00,,,0.00,WUHU216DAVISVP2,2013-03-05 10:50:00,
2013-03-05 05:55:00,36.9,27.4,30.06,NNW,328,0.0,0.0,68,0.00,,,0.00,WUHU216DAVISVP2,2013-03-05 10:55:00,
2013-03-05 06:00:00,36.9,27.4,30.05,NNW,328,0.0,0.0,68,0.00,,,0.00,WUHU216DAVISVP2,2013-03-05 11:00:00,
2013-03-05 06:05:00,36.9,27.0,30.05,NNW,328,0.0,0.0,67,0.00,,,0.00,WUHU216DAVISVP2,2013-03-05 11:05:00,
2013-03-05 06:10:00,36.8,27.3,30.05,NNW,328,0.0,0.0,68,0.00,,,0.00,WUHU216DAVISVP2,2013-03-05 11:10:00,
2013-03-05 06:15:00,36.8,27.3,30.05,NNW,328,0.0,0.0,68,0.00,,,0.00,WUHU216DAVISVP2,2013-03-05 11:15:00,
2013-03-05 06:20:00,36.8,27.7,30.05,NNW,328,0.0,0.0,69,0.00,,,0.00,WUHU216DAVISVP2,2013-03-05 11:20:00,
2013-03-05 06:25:00,36.6,27.5,30.05,NNW,328,0.0,0.0,69,0.00,,,0.00,WUHU216DAVISVP2,2013-03-05 11:25:00,
2013-03-05 06:30:00,36.5,27.4,30.05,NNW,328,0.0,0.0,69,0.00,,,0.00,WUHU216DAVISVP2,2013-03-05 11:30:00,
2013-03-05 06:35:00,36.2,26.7,30.05,NNW,328,0.0,0.0,68,0.00,,,0.00,WUHU216DAVISVP2,2013-03-05 11:35:00,
2013-03-05 06:40:00,35.9,26.4,30.05,NNW,328,0.0,0.0,68,0.00,,,0.00,WUHU216DAVISVP2,2013-03-05 11:40:00,
2013-03-05 06:45:00,35.8,26.3,30.05,NNW,328,0.0,0.0,68,0.00,,,0.00,WUHU216DAVISVP2,2013-03-05 11:45:00,
2013-03-05 06:50:00,35.3,25.9,30.05,NNW,328,0.0,0.0,68,0.00,,,0.00,WUHU216DAVISVP2,2013-03-05 11:50:00,
2013-03-05 06:55:00,35.2,25.8,30.05,NNW,328,0.0,0.0,68,0.00,,,0.00,WUHU216DAVISVP2,2013-03-05 11:55:00,
2013-03-05 07:00:00,35.0,25.6,30.04,NNW,328,0.0,0.0,68,0.00,,,0.00,WUHU216DAVISVP2,2013-03-05 12:00:00,
2013-03-05 07:05:00,34.9,25.8,30.04,NNW,328,0.0,0.0,69,0.00,,,0.00,WUHU216DAVISVP2,2013-03-05 12:05:00,
2013-03-05 07:10:00,35.0,26.3,30.04,WSW,240,0.0,0.0,70,0.00,,,0.00,WUHU216DAVISVP2,2013-03-05 12:10:00,
2013-03-05 07:15:00,35.3,26.6,30.04,WSW,240,0.0,0.0,70,0.00,,,0.00,WUHU216DAVISVP2,2013-03-05 12:15:00,
2013-03-05 07:20:00,35.5,26.8,30.04,WSW,240,0.0,0.0,70,0.00,,,0.00,WUHU216DAVISVP2,2013-03-05 12:20:00,
2013-03-05 07:25:00,35.9,26.8,30.04,WSW,240,0.0,0.0,69,0.00,,,0.00,WUHU216DAVISVP2,2013-03-05 12:25:00,
2013-03-05 07:30:00,36.2,27.4,30.03,WSW,240,0.0,0.0,70,0.00,,,0.00,WUHU216DAVISVP2,2013-03-05 12:30:00,
2013-03-05 07:36:00,36.5,27.7,30.03,WSW,240,0.0,0.0,70,0.00,,,0.00,WUHU216DAVISVP2,2013-03-05 12:36:00,
2013-03-05 07:41:00,36.9,28.1,30.03,WSW,240,0.0,0.0,70,0.00,,,0.00,WUHU216DAVISVP2,2013-03-05 12:41:00,
2013-03-05 07:46:00,37.2,28.4,30.04,WSW,240,0.0,0.0,70,0.00,,,0.00,WUHU216DAVISVP2,2013-03-05 12:46:00,
2013-03-05 07:51:00,37.6,28.8,30.04,WSW,240,0.0,0.0,70,0.00,,,0.00,WUHU216DAVISVP2,2013-03-05 12:51:00,
2013-03-05 07:55:00,38.0,29.2,30.04,WSW,240,0.0,0.0,70,0.00,,,0.00,WUHU216DAVISVP2,2013-03-05 12:55:00,
2013-03-05 08:00:00,38.8,29.6,30.03,WSW,240,0.0,0.0,69,0.00,,,0.00,WUHU216DAVISVP2,2013-03-05 13:00:00,
2013-03-05 08:05:00,39.5,29.9,30.03,WSW,240,0.0,0.0,68,0.00,,,0.00,WUHU216DAVISVP2,2013-03-05 13:05:00,
2013-03-05 08:10:00,40.1,29.7,30.03,WSW,240,0.0,0.0,66,0.00,,,0.00,WUHU216DAVISVP2,2013-03-05 13:10:00,
2013-03-05 08:15:00,40.6,29.5,30.03,WSW,240,0.0,0.0,64,0.00,,,0.00,WUHU216DAVISVP2,2013-03-05 13:15:00,
2013-03-05 08:20:00,41.3,28.9,30.03,WSW,240,0.0,0.0,61,0.00,,,0.00,WUHU216DAVISVP2,2013-03-05 13:20:00,
2013-03-05 08:26:00,42.2,28.5,30.03,WSW,239,0.0,2.0,58,0.00,,,0.00,WUHU216DAVISVP2,2013-03-05 13:26:00,
2013-03-05 08:30:00,43.1,28.5,30.03,ESE,106,0.0,2.0,56,0.00,,,0.00,WUHU216DAVISVP2,2013-03-05 13:30:00,
2013-03-05 08:35:00,43.5,28.9,30.03,ESE,104,0.0,2.0,56,0.00,,,0.00,WUHU216DAVISVP2,2013-03-05 13:35:00,
2013-03-05 08:40:00,44.5,28.9,30.03,East,85,0.0,6.0,54,0.00,,,0.00,WUHU216DAVISVP2,2013-03-05 13:40:00,
2013-03-05 08:45:00,45.2,29.1,30.02,ENE,66,0.0,6.0,53,0.00,,,0.00,WUHU216DAVISVP2,2013-03-05 13:45:00,
2013-03-05 08:51:00,46.2,29.5,30.02,ENE,66,0.0,6.0,52,0.00,,,0.00,WUHU216DAVISVP2,2013-03-05 13:51:00,
2013-03-05 08:56:00,47.0,29.8,30.02,ENE,66,0.0,4.0,51,0.00,,,0.00,WUHU216DAVISVP2,2013-03-05 13:56:00,
2013-03-05 09:01:00,48.0,30.2,30.02,ENE,66,1.0,4.0,50,0.00,,,0.00,WUHU216DAVISVP2,2013-03-05 14:01:00,
2013-03-05 09:06:00,48.3,29.4,30.02,East,79,2.0,6.0,48,0.00,,,0.00,WUHU216DAVISVP2,2013-03-05 14:06:00,
2013-03-05 09:11:00,48.2,28.8,30.02,ENE,69,0.0,6.0,47,0.00,,,0.00,WUHU216DAVISVP2,2013-03-05 14:11:00,
2013-03-05 09:16:00,48.3,28.9,30.01,ENE,69,0.0,6.0,47,0.00,,,0.00,WUHU216DAVISVP2,2013-03-05 14:16:00,
2013-03-05 09:21:00,48.5,28.0,30.01,ENE,69,0.0,6.0,45,0.00,,,0.00,WUHU216DAVISVP2,2013-03-05 14:21:00,
2013-03-05 09:26:00,48.6,28.6,30.01,ENE,69,2.0,6.0,46,0.00,,,0.00,WUHU216DAVISVP2,2013-03-05 14:26:00,
2013-03-05 09:31:00,48.8,28.3,30.01,ENE,69,0.0,4.0,45,0.00,,,0.00,WUHU216DAVISVP2,2013-03-05 14:31:00,
2013-03-05 09:36:00,48.9,28.4,30.01,ENE,69,0.0,4.0,45,0.00,,,0.00,WUHU216DAVISVP2,2013-03-05 14:36:00,
2013-03-05 09:41:00,49.5,28.4,30.01,SE,126,0.0,2.0,44,0.00,,,0.00,WUHU216DAVISVP2,2013-03-05 14:41:00,
2013-03-05 09:46:00,50.5,28.1,30.01,ESE,113,0.0,4.0,42,0.00,,,0.00,WUHU216DAVISVP2,2013-03-05 14:46:00,
2013-03-05 09:51:00,51.4,28.9,30.01,ESE,113,0.0,4.0,42,0.00,,,0.00,WUHU216DAVISVP2,2013-03-05 14:51:00,
2013-03-05 09:56:00,52.0,28.2,30.01,SW,215,0.0,6.0,40,0.00,,,0.00,WUHU216DAVISVP2,2013-03-05 14:56:00,
2013-03-05 10:01:00,52.8,29.0,30.01,ENE,72,0.0,6.0,40,0.00,,,0.00,WUHU216DAVISVP2,2013-03-05 15:01:00,
2013-03-05 10:06:00,53.2,28.7,30.01,East,82,1.0,6.0,39,0.00,,,0.00,WUHU216DAVISVP2,2013-03-05 15:06:00,
2013-03-05 10:11:00,53.5,29.0,30.01,SE,131,0.0,6.0,39,0.00,,,0.00,WUHU216DAVISVP2,2013-03-05 15:11:00,
2013-03-05 10:16:00,53.6,29.0,30.00,SE,124,1.0,4.0,39,0.00,,,0.00,WUHU216DAVISVP2,2013-03-05 15:16:00,
2013-03-05 10:21:00,53.5,28.3,30.00,ESE,123,1.0,4.0,38,0.00,,,0.00,WUHU216DAVISVP2,2013-03-05 15:21:00,
2013-03-05 10:26:00,53.2,28.7,30.00,ESE,123,0.0,2.0,39,0.00,,,0.00,WUHU216DAVISVP2,2013-03-05 15:26:00,
2013-03-05 10:31:00,52.9,28.4,29.99,SE,145,0.0,2.0,39,0.00,,,0.00,WUHU216DAVISVP2,2013-03-05 15:31:00,
2013-03-05 10:36:00,52.2,27.8,29.99,South,186,0.0,4.0,39,0.00,,,0.00,WUHU216DAVISVP2,2013-03-05 15:36:00,
2013-03-05 10:41:00,51.7,27.3,29.99,ESE,106,0.0,4.0,39,0.00,,,0.00,WUHU216DAVISVP2,2013-03-05 15:41:00,
2013-03-05 10:46:00,51.4,27.7,29.99,South,175,2.0,4.0,40,0.00,,,0.00,WUHU216DAVISVP2,2013-03-05 15:46:00,
2013-03-05 10:51:00,51.0,27.3,29.99,SE,131,1.0,4.0,40,0.00,,,0.00,WUHU216DAVISVP2,2013-03-05 15:51:00,
2013-03-05 10:56:00,50.8,28.4,29.99,SE,131,0.0,2.0,42,0.00,,,0.00,WUHU216DAVISVP2,2013-03-05 15:56:00,
2013-03-05 11:01:00,50.7,28.3,29.99,SE,131,0.0,1.0,42,0.00,,,0.00,WUHU216DAVISVP2,2013-03-05 16:01:00,
2013-03-05 11:05:00,50.5,28.1,29.99,SE,133,0.0,2.0,42,0.00,,,0.00,WUHU216DAVISVP2,2013-03-05 16:05:00,
2013-03-05 11:10:00,50.4,28.6,29.99,SE,133,0.0,2.0,43,0.00,,,0.00,WUHU216DAVISVP2,2013-03-05 16:10:00,
2013-03-05 11:15:00,50.2,29.0,29.99,SE,133,0.0,2.0,44,0.00,,,0.00,WUHU216DAVISVP2,2013-03-05 16:15:00,
2013-03-05 11:20:00,50.1,28.9,29.99,SE,133,0.0,0.0,44,0.00,,,0.00,WUHU216DAVISVP2,2013-03-05 16:20:00,
2013-03-05 11:25:00,49.9,29.3,29.99,SE,133,0.0,1.0,45,0.00,,,0.00,WUHU216DAVISVP2,2013-03-05 16:25:00,
2013-03-05 11:30:00,49.6,28.4,29.99,SE,133,0.0,1.0,44,0.00,,,0.00,WUHU216DAVISVP2,2013-03-05 16:30:00,
2013-03-05 11:35:00,49.6,29.0,29.99,SE,133,0.0,0.0,45,0.00,,,0.00,WUHU216DAVISVP2,2013-03-05 16:35:00,
2013-03-05 11:40:00,49.5,28.9,29.99,SE,133,0.0,0.0,45,0.00,,,0.00,WUHU216DAVISVP2,2013-03-05 16:40:00,
2013-03-05 11:45:00,49.5,29.5,29.98,SE,133,0.0,0.0,46,0.00,,,0.00,WUHU216DAVISVP2,2013-03-05 16:45:00,
2013-03-05 11:50:00,49.5,30.0,29.98,SE,133,0.0,0.0,47,0.00,,,0.00,WUHU216DAVISVP2,2013-03-05 16:50:00,
2013-03-05 11:55:00,49.4,29.4,29.98,SE,133,0.0,1.0,46,0.00,,,0.00,WUHU216DAVISVP2,2013-03-05 16:55:00,
2013-03-05 12:00:00,49.5,29.5,29.98,SE,133,0.0,1.0,46,0.00,,,0.00,WUHU216DAVISVP2,2013-03-05 17:00:00,
2013-03-05 12:06:00,49.5,30.0,29.98,SE,133,0.0,0.0,47,0.00,,,0.00,WUHU216DAVISVP2,2013-03-05 17:06:00,
2013-03-05 12:11:00,49.6,30.1,29.98,SE,133,0.0,1.0,47,0.00,,,0.00,WUHU216DAVISVP2,2013-03-05 17:11:00,
2013-03-05 12:16:00,49.6,30.1,29.97,SE,133,0.0,1.0,47,0.00,,,0.00,WUHU216DAVISVP2,2013-03-05 17:16:00,
2013-03-05 12:21:00,49.8,30.3,29.97,SE,133,0.0,1.0,47,0.00,,,0.00,WUHU216DAVISVP2,2013-03-05 17:21:00,
2013-03-05 12:26:00,49.8,30.8,29.97,WNW,289,4.0,6.0,48,0.00,,,0.00,WUHU216DAVISVP2,2013-03-05 17:26:00,
2013-03-05 12:31:00,49.6,32.2,29.97,NW,311,0.0,6.0,51,0.00,,,0.00,WUHU216DAVISVP2,2013-03-05 17:31:00,
2013-03-05 12:36:00,49.4,33.0,29.97,NNW,344,0.0,4.0,53,0.00,,,0.00,WUHU216DAVISVP2,2013-03-05 17:36:00,
2013-03-05 12:41:00,49.1,33.7,29.97,SE,131,0.0,4.0,55,0.00,,,0.00,WUHU216DAVISVP2,2013-03-05 17:41:00,
2013-03-05 12:46:00,48.9,34.4,29.96,NNW,329,0.0,4.0,57,0.00,,,0.00,WUHU216DAVISVP2,2013-03-05 17:46:00,
2013-03-05 12:51:00,48.5,34.9,29.96,NNW,328,0.0,4.0,59,0.00,,,0.00,WUHU216DAVISVP2,2013-03-05 17:51:00,
2013-03-05 12:56:00,48.2,35.9,29.96,NNW,328,0.0,4.0,62,0.00,,,0.00,WUHU216DAVISVP2,2013-03-05 17:56:00,
2013-03-05 13:01:00,47.7,36.6,29.95,NNW,328,0.0,1.0,65,0.01,,,0.01,WUHU216DAVISVP2,2013-03-05 18:01:00,
2013-03-05 13:06:00,47.3,37.0,29.95,NNW,328,0.0,1.0,67,0.01,,,0.01,WUHU216DAVISVP2,2013-03-05 18:06:00,
2013-03-05 13:11:00,47.0,37.5,29.95,NNW,328,0.0,1.0,69,0.02,,,0.02,WUHU216DAVISVP2,2013-03-05 18:11:00,
2013-03-05 13:16:00,46.7,37.5,29.94,NNW,328,0.0,1.0,70,0.02,,,0.02,WUHU216DAVISVP2,2013-03-05 18:16:00,
2013-03-05 13:21:00,46.4,37.9,29.94,NNW,328,0.0,0.0,72,0.03,,,0.03,WUHU216DAVISVP2,2013-03-05 18:21:00,
2013-03-05 13:26:00,46.2,38.1,29.94,NNW,328,0.0,0.0,73,0.04,,,0.04,WUHU216DAVISVP2,2013-03-05 18:26:00,
2013-03-05 13:31:00,46.2,38.8,29.93,NNW,328,0.0,0.0,75,0.04,,,0.04,WUHU216DAVISVP2,2013-03-05 18:31:00,
2013-03-05 13:36:00,46.2,38.8,29.93,NNW,328,0.0,0.0,75,0.05,,,0.05,WUHU216DAVISVP2,2013-03-05 18:36:00,
2013-03-05 13:41:00,46.2,39.1,29.93,NNW,328,0.0,0.0,76,0.06,,,0.06,WUHU216DAVISVP2,2013-03-05 18:41:00,
2013-03-05 13:46:00,46.1,39.3,29.92,NNW,328,0.0,0.0,77,0.06,,,0.06,WUHU216DAVISVP2,2013-03-05 18:46:00,
2013-03-05 13:51:00,46.1,39.7,29.92,NNW,328,0.0,0.0,78,0.07,,,0.07,WUHU216DAVISVP2,2013-03-05 18:51:00,
2013-03-05 13:57:00,46.1,39.7,29.92,NNW,328,0.0,1.0,78,0.07,,,0.07,WUHU216DAVISVP2,2013-03-05 18:57:00,
2013-03-05 14:01:00,46.1,40.0,29.92,NNW,328,0.0,1.0,79,0.07,,,0.08,WUHU216DAVISVP2,2013-03-05 19:01:00,
2013-03-05 14:06:00,46.2,40.1,29.92,NNW,328,0.0,0.0,79,0.07,,,0.08,WUHU216DAVISVP2,2013-03-05 19:06:00,
2013-03-05 14:11:00,46.2,40.4,29.92,NNW,328,0.0,0.0,80,0.06,,,0.08,WUHU216DAVISVP2,2013-03-05 19:11:00,
2013-03-05 14:16:00,46.2,40.4,29.91,NNW,328,0.0,0.0,80,0.06,,,0.08,WUHU216DAVISVP2,2013-03-05 19:16:00,
2013-03-05 14:21:00,46.2,40.4,29.91,NNW,328,0.0,0.0,80,0.07,,,0.10,WUHU216DAVISVP2,2013-03-05 19:21:00,
2013-03-05 14:26:00,46.2,40.7,29.91,NNW,328,0.0,0.0,81,0.07,,,0.11,WUHU216DAVISVP2,2013-03-05 19:26:00,
2013-03-05 14:31:00,46.4,40.9,29.91,NNW,328,0.0,0.0,81,0.08,,,0.12,WUHU216DAVISVP2,2013-03-05 19:31:00,
2013-03-05 14:36:00,46.4,40.9,29.91,NNW,328,0.0,0.0,81,0.07,,,0.12,WUHU216DAVISVP2,2013-03-05 19:36:00,
2013-03-05 14:41:00,46.4,40.9,29.91,NNW,328,0.0,0.0,81,0.06,,,0.12,WUHU216DAVISVP2,2013-03-05 19:41:00,
2013-03-05 14:46:00,46.4,41.2,29.90,NW,326,0.0,0.0,82,0.07,,,0.13,WUHU216DAVISVP2,2013-03-05 19:46:00,
2013-03-05 14:51:00,46.4,41.5,29.90,NW,326,0.0,0.0,83,0.07,,,0.14,WUHU216DAVISVP2,2013-03-05 19:51:00,
2013-03-05 14:56:00,46.5,41.6,29.90,NW,326,0.0,0.0,83,0.07,,,0.14,WUHU216DAVISVP2,2013-03-05 19:56:00,
2013-03-05 15:02:00,46.7,41.8,29.89,NW,326,0.0,1.0,83,0.06,,,0.14,WUHU216DAVISVP2,2013-03-05 20:02:00,
2013-03-05 15:07:00,46.7,41.8,29.89,NW,326,0.0,2.0,83,0.07,,,0.15,WUHU216DAVISVP2,2013-03-05 20:07:00,
2013-03-05 15:12:00,46.8,42.2,29.89,NW,326,0.0,2.0,84,0.07,,,0.15,WUHU216DAVISVP2,2013-03-05 20:12:00,
2013-03-05 15:17:00,46.8,42.2,29.88,NW,326,0.0,1.0,84,0.07,,,0.15,WUHU216DAVISVP2,2013-03-05 20:17:00,
2013-03-05 15:22:00,46.8,42.2,29.88,NW,326,0.0,1.0,84,0.05,,,0.15,WUHU216DAVISVP2,2013-03-05 20:22:00,
2013-03-05 15:27:00,47.0,42.4,29.88,NW,326,0.0,0.0,84,0.04,,,0.15,WUHU216DAVISVP2,2013-03-05 20:27:00,
2013-03-05 15:32:00,46.8,42.2,29.88,NW,326,0.0,0.0,84,0.03,,,0.15,WUHU216DAVISVP2,2013-03-05 20:32:00,
2013-03-05 15:37:00,47.0,42.7,29.88,NW,326,0.0,0.0,85,0.03,,,0.15,WUHU216DAVISVP2,2013-03-05 20:37:00,
2013-03-05 15:42:00,47.0,42.7,29.88,NW,326,0.0,0.0,85,0.03,,,0.15,WUHU216DAVISVP2,2013-03-05 20:42:00,
2013-03-05 15:47:00,47.0,42.7,29.88,NW,326,0.0,0.0,85,0.03,,,0.16,WUHU216DAVISVP2,2013-03-05 20:47:00,
2013-03-05 15:52:00,47.0,42.7,29.88,NW,326,0.0,0.0,85,0.02,,,0.16,WUHU216DAVISVP2,2013-03-05 20:52:00,
2013-03-05 15:57:00,47.0,42.7,29.88,NW,326,0.0,0.0,85,0.02,,,0.16,WUHU216DAVISVP2,2013-03-05 20:57:00,
2013-03-05 16:02:00,46.8,42.5,29.86,NW,326,0.0,0.0,85,0.02,,,0.16,WUHU216DAVISVP2,2013-03-05 21:02:00,
2013-03-05 16:07:00,46.8,42.5,29.86,NW,326,0.0,0.0,85,0.01,,,0.16,WUHU216DAVISVP2,2013-03-05 21:07:00,
2013-03-05 16:12:00,47.0,42.7,29.86,NW,326,0.0,0.0,85,0.01,,,0.16,WUHU216DAVISVP2,2013-03-05 21:12:00,
2013-03-05 16:17:00,47.0,42.7,29.86,NW,326,0.0,0.0,85,0.02,,,0.17,WUHU216DAVISVP2,2013-03-05 21:17:00,
2013-03-05 16:22:00,47.0,42.7,29.86,NW,326,0.0,0.0,85,0.02,,,0.17,WUHU216DAVISVP2,2013-03-05 21:22:00,
2013-03-05 16:27:00,47.0,43.0,29.86,NW,326,0.0,0.0,86,0.02,,,0.17,WUHU216DAVISVP2,2013-03-05 21:27:00,
2013-03-05 16:32:00,47.0,43.0,29.85,NW,326,0.0,0.0,86,0.03,,,0.18,WUHU216DAVISVP2,2013-03-05 21:32:00,
2013-03-05 16:37:00,47.0,43.0,29.85,NW,326,0.0,0.0,86,0.03,,,0.18,WUHU216DAVISVP2,2013-03-05 21:37:00,
2013-03-05 16:42:00,47.0,43.0,29.85,NW,326,0.0,0.0,86,0.03,,,0.18,WUHU216DAVISVP2,2013-03-05 21:42:00,
2013-03-05 16:47:00,47.0,43.0,29.85,NW,326,0.0,0.0,86,0.04,,,0.20,WUHU216DAVISVP2,2013-03-05 21:47:00,
2013-03-05 16:52:00,47.0,43.0,29.85,NW,326,0.0,0.0,86,0.04,,,0.20,WUHU216DAVISVP2,2013-03-05 21:52:00,
2013-03-05 16:57:00,47.0,43.0,29.85,NW,326,0.0,0.0,86,0.05,,,0.21,WUHU216DAVISVP2,2013-03-05 21:57:00,
2013-03-05 17:02:00,47.0,43.0,29.85,NW,326,0.0,0.0,86,0.06,,,0.22,WUHU216DAVISVP2,2013-03-05 22:02:00,
2013-03-05 17:07:00,47.0,43.3,29.85,NW,326,0.0,0.0,87,0.07,,,0.23,WUHU216DAVISVP2,2013-03-05 22:07:00,
2013-03-05 17:12:00,47.0,43.3,29.85,NW,326,0.0,0.0,87,0.08,,,0.24,WUHU216DAVISVP2,2013-03-05 22:12:00,
2013-03-05 17:17:00,47.0,43.3,29.84,NW,326,0.0,0.0,87,0.07,,,0.24,WUHU216DAVISVP2,2013-03-05 22:17:00,
2013-03-05 17:22:00,47.0,43.3,29.84,NW,326,0.0,0.0,87,0.08,,,0.25,WUHU216DAVISVP2,2013-03-05 22:22:00,
2013-03-05 17:27:00,47.1,43.4,29.84,NW,326,0.0,0.0,87,0.08,,,0.25,WUHU216DAVISVP2,2013-03-05 22:27:00,
2013-03-05 17:32:00,47.1,43.4,29.83,NNW,328,0.0,1.0,87,0.08,,,0.26,WUHU216DAVISVP2,2013-03-05 22:32:00,
2013-03-05 17:37:00,47.0,43.3,29.83,NNW,328,0.0,1.0,87,0.08,,,0.26,WUHU216DAVISVP2,2013-03-05 22:37:00,
2013-03-05 17:42:00,47.0,43.6,29.83,NNW,335,0.0,1.0,88,0.08,,,0.26,WUHU216DAVISVP2,2013-03-05 22:42:00,
2013-03-05 17:47:00,47.0,43.6,29.82,NNW,336,0.0,2.0,88,0.06,,,0.26,WUHU216DAVISVP2,2013-03-05 22:47:00,
2013-03-05 17:52:00,47.0,43.6,29.82,NNW,336,0.0,2.0,88,0.06,,,0.26,WUHU216DAVISVP2,2013-03-05 22:52:00,
2013-03-05 17:57:00,47.0,43.6,29.82,NNW,336,0.0,1.0,88,0.05,,,0.26,WUHU216DAVISVP2,2013-03-05 22:57:00,
2013-03-05 18:02:00,47.0,43.6,29.82,ENE,78,0.0,4.0,88,0.04,,,0.26,WUHU216DAVISVP2,2013-03-05 23:02:00,
2013-03-05 18:07:00,47.1,43.7,29.82,ENE,71,0.0,4.0,88,0.03,,,0.26,WUHU216DAVISVP2,2013-03-05 23:07:00,
2013-03-05 18:12:00,47.1,43.7,29.82,ENE,75,0.0,0.0,88,0.02,,,0.26,WUHU216DAVISVP2,2013-03-05 23:12:00,
2013-03-05 18:17:00,47.1,43.7,29.81,ENE,75,0.0,0.0,88,0.02,,,0.26,WUHU216DAVISVP2,2013-03-05 23:17:00,
2013-03-05 18:22:00,47.1,43.7,29.81,ENE,75,1.0,1.0,88,0.01,,,0.26,WUHU216DAVISVP2,2013-03-05 23:22:00,
2013-03-05 18:27:00,47.1,43.7,29.81,East,82,0.0,1.0,88,0.01,,,0.26,WUHU216DAVISVP2,2013-03-05 23:27:00,
2013-03-05 18:32:00,47.1,43.7,29.81,ENE,75,2.0,2.0,88,0.00,,,0.26,WUHU216DAVISVP2,2013-03-05 23:32:00,
2013-03-05 18:37:00,47.1,43.7,29.81,ENE,62,0.0,2.0,88,0.00,,,0.26,WUHU216DAVISVP2,2013-03-05 23:37:00,
2013-03-05 18:42:00,47.1,44.0,29.81,East,80,0.0,7.0,89,0.00,,,0.26,WUHU216DAVISVP2,2013-03-05 23:42:00,
2013-03-05 18:47:00,47.1,44.0,29.80,East,85,4.0,7.0,89,0.00,,,0.26,WUHU216DAVISVP2,2013-03-05 23:47:00,
2013-03-05 18:52:00,47.1,44.0,29.80,East,88,4.0,7.0,89,0.00,,,0.26,WUHU216DAVISVP2,2013-03-05 23:52:00,
2013-03-05 18:57:00,47.1,44.0,29.80,ESE,123,4.0,7.0,89,0.00,,,0.26,WUHU216DAVISVP2,2013-03-05 23:57:00,
2013-03-05 19:02:00,47.1,44.0,29.78,East,89,2.0,7.0,89,0.00,,,0.26,WUHU216DAVISVP2,2013-03-06 00:02:00,
2013-03-05 19:07:00,47.1,44.0,29.78,East,85,4.0,6.0,89,0.00,,,0.26,WUHU216DAVISVP2,2013-03-06 00:07:00,
2013-03-05 19:12:00,47.1,44.0,29.78,ESE,112,0.0,7.0,89,0.00,,,0.26,WUHU216DAVISVP2,2013-03-06 00:12:00,
2013-03-05 19:17:00,47.1,44.3,29.77,ESE,103,6.0,9.0,90,0.00,,,0.26,WUHU216DAVISVP2,2013-03-06 00:17:00,
2013-03-05 19:22:00,47.3,44.5,29.77,East,83,1.0,10.0,90,0.00,,,0.26,WUHU216DAVISVP2,2013-03-06 00:22:00,
2013-03-05 19:27:00,47.3,44.5,29.77,East,92,0.0,10.0,90,0.00,,,0.26,WUHU216DAVISVP2,2013-03-06 00:27:00,
2013-03-05 19:32:00,47.3,44.5,29.76,East,96,2.0,8.0,90,0.00,,,0.26,WUHU216DAVISVP2,2013-03-06 00:32:00,
2013-03-05 19:37:00,47.3,44.5,29.76,East,89,1.0,9.0,90,0.00,,,0.26,WUHU216DAVISVP2,2013-03-06 00:37:00,
2013-03-05 19:42:00,47.3,44.5,29.76,ENE,71,1.0,10.0,90,0.00,,,0.26,WUHU216DAVISVP2,2013-03-06 00:42:00,
2013-03-05 19:47:00,47.3,44.5,29.74,ESE,109,1.0,10.0,90,0.00,,,0.26,WUHU216DAVISVP2,2013-03-06 00:47:00,
2013-03-05 19:52:00,47.3,44.5,29.74,East,80,2.0,8.0,90,0.00,,,0.26,WUHU216DAVISVP2,2013-03-06 00:52:00,
2013-03-05 19:57:00,47.4,44.6,29.74,East,79,4.0,7.0,90,0.00,,,0.26,WUHU216DAVISVP2,2013-03-06 00:57:00,
2013-03-05 20:02:00,47.1,44.3,29.73,ENE,78,8.0,8.0,90,0.00,,,0.26,WUHU216DAVISVP2,2013-03-06 01:02:00,
2013-03-05 20:07:00,47.4,44.6,29.73,East,80,1.0,8.0,90,0.00,,,0.26,WUHU216DAVISVP2,2013-03-06 01:07:00,
2013-03-05 20:12:00,47.3,44.5,29.73,ESE,107,7.0,9.0,90,0.00,,,0.26,WUHU216DAVISVP2,2013-03-06 01:12:00,
2013-03-05 20:17:00,47.0,44.2,29.70,East,82,2.0,9.0,90,0.00,,,0.26,WUHU216DAVISVP2,2013-03-06 01:17:00,
2013-03-05 20:22:00,46.5,43.7,29.70,SE,130,0.0,9.0,90,0.00,,,0.26,WUHU216DAVISVP2,2013-03-06 01:22:00,
2013-03-05 20:27:00,46.5,43.7,29.70,East,89,8.0,10.0,90,0.00,,,0.26,WUHU216DAVISVP2,2013-03-06 01:27:00,
2013-03-05 20:32:00,46.4,43.6,29.68,East,82,2.0,10.0,90,0.00,,,0.26,WUHU216DAVISVP2,2013-03-06 01:32:00,
2013-03-05 20:37:00,45.8,43.0,29.68,East,100,6.0,10.0,90,0.00,,,0.26,WUHU216DAVISVP2,2013-03-06 01:37:00,
2013-03-05 20:42:00,45.8,43.0,29.68,ENE,78,7.0,10.0,90,0.00,,,0.26,WUHU216DAVISVP2,2013-03-06 01:42:00,
2013-03-05 20:47:00,45.5,42.7,29.67,ESE,103,2.0,11.0,90,0.00,,,0.26,WUHU216DAVISVP2,2013-03-06 01:47:00,
2013-03-05 20:52:00,45.2,42.4,29.67,ESE,103,0.0,11.0,90,0.00,,,0.26,WUHU216DAVISVP2,2013-03-06 01:52:00,
2013-03-05 20:57:00,44.9,42.1,29.67,East,85,9.0,11.0,90,0.00,,,0.26,WUHU216DAVISVP2,2013-03-06 01:57:00,
2013-03-05 21:02:00,44.9,41.8,29.66,ESE,123,6.0,11.0,89,0.00,,,0.26,WUHU216DAVISVP2,2013-03-06 02:02:00,
2013-03-05 21:07:00,44.8,41.7,29.66,ENE,76,2.0,10.0,89,0.00,,,0.26,WUHU216DAVISVP2,2013-03-06 02:07:00,
2013-03-05 21:12:00,44.5,41.4,29.66,East,89,6.0,10.0,89,0.00,,,0.26,WUHU216DAVISVP2,2013-03-06 02:12:00,
2013-03-05 21:17:00,44.5,41.4,29.66,ESE,113,1.0,10.0,89,0.01,,,0.27,WUHU216DAVISVP2,2013-03-06 02:17:00,
2013-03-05 21:22:00,44.2,41.1,29.66,East,80,1.0,10.0,89,0.01,,,0.27,WUHU216DAVISVP2,2013-03-06 02:22:00,
2013-03-05 21:27:00,44.1,41.0,29.66,East,86,8.0,9.0,89,0.01,,,0.27,WUHU216DAVISVP2,2013-03-06 02:27:00,
2013-03-05 21:32:00,44.1,41.0,29.65,East,83,1.0,9.0,89,0.02,,,0.28,WUHU216DAVISVP2,2013-03-06 02:32:00,
2013-03-05 21:37:00,44.1,41.0,29.65,East,82,2.0,7.0,89,0.02,,,0.28,WUHU216DAVISVP2,2013-03-06 02:37:00,
2013-03-05 21:42:00,43.8,40.8,29.65,ESE,114,4.0,7.0,89,0.02,,,0.28,WUHU216DAVISVP2,2013-03-06 02:42:00,
2013-03-05 21:47:00,43.9,41.1,29.64,ENE,78,2.0,8.0,90,0.02,,,0.28,WUHU216DAVISVP2,2013-03-06 02:47:00,
2013-03-05 21:52:00,43.8,41.1,29.64,East,95,2.0,8.0,90,0.02,,,0.28,WUHU216DAVISVP2,2013-03-06 02:52:00,
2013-03-05 21:57:00,43.5,40.7,29.64,ESE,114,2.0,9.0,90,0.02,,,0.28,WUHU216DAVISVP2,2013-03-06 02:57:00,
2013-03-05 22:03:00,43.5,40.7,29.62,East,82,8.0,10.0,90,0.03,,,0.29,WUHU216DAVISVP2,2013-03-06 03:03:00,
2013-03-05 22:08:00,43.2,40.4,29.62,East,93,2.0,10.0,90,0.04,,,0.30,WUHU216DAVISVP2,2013-03-06 03:08:00,
2013-03-05 22:12:00,43.2,40.5,29.62,East,80,6.0,10.0,90,0.05,,,0.31,WUHU216DAVISVP2,2013-03-06 03:12:00,
2013-03-05 22:18:00,43.1,40.4,29.62,East,82,1.0,8.0,90,0.05,,,0.32,WUHU216DAVISVP2,2013-03-06 03:18:00,
2013-03-05 22:23:00,43.1,40.4,29.62,East,79,4.0,8.0,90,0.06,,,0.33,WUHU216DAVISVP2,2013-03-06 03:23:00,
2013-03-05 22:28:00,42.9,40.1,29.62,East,89,8.0,8.0,90,0.07,,,0.34,WUHU216DAVISVP2,2013-03-06 03:28:00,
2013-03-05 22:33:00,42.8,40.0,29.60,East,90,0.0,9.0,90,0.10,,,0.38,WUHU216DAVISVP2,2013-03-06 03:33:00,
2013-03-05 22:38:00,42.8,40.1,29.60,East,83,6.0,9.0,90,0.12,,,0.40,WUHU216DAVISVP2,2013-03-06 03:38:00,
2013-03-05 22:43:00,42.8,40.0,29.60,ENE,73,7.0,7.0,90,0.12,,,0.40,WUHU216DAVISVP2,2013-03-06 03:43:00,
2013-03-05 22:48:00,42.6,39.9,29.61,ESE,104,1.0,7.0,90,0.12,,,0.40,WUHU216DAVISVP2,2013-03-06 03:48:00,
2013-03-05 22:53:00,42.6,39.8,29.61,ENE,78,6.0,10.0,90,0.20,,,0.48,WUHU216DAVISVP2,2013-03-06 03:53:00,
2013-03-05 22:58:00,42.8,40.0,29.61,ENE,76,0.0,10.0,90,0.20,,,0.48,WUHU216DAVISVP2,2013-03-06 03:58:00,
2013-03-05 23:03:00,42.6,39.8,29.59,East,80,0.0,10.0,90,0.19,,,0.48,WUHU216DAVISVP2,2013-03-06 04:03:00,
2013-03-05 23:08:00,42.6,39.8,29.59,ENE,76,2.0,10.0,90,0.18,,,0.48,WUHU216DAVISVP2,2013-03-06 04:08:00,
2013-03-05 23:13:00,42.6,39.9,29.59,ESE,119,1.0,8.0,90,0.17,,,0.48,WUHU216DAVISVP2,2013-03-06 04:13:00,
2013-03-05 23:18:00,42.6,40.2,29.58,East,80,4.0,9.0,91,0.16,,,0.48,WUHU216DAVISVP2,2013-03-06 04:18:00,
2013-03-05 23:23:00,42.8,40.1,29.58,East,80,2.0,10.0,90,0.15,,,0.48,WUHU216DAVISVP2,2013-03-06 04:23:00,
2013-03-05 23:28:00,42.8,40.0,29.58,East,80,0.0,10.0,90,0.14,,,0.48,WUHU216DAVISVP2,2013-03-06 04:28:00,
2013-03-05 23:33:00,42.8,40.3,29.57,East,82,1.0,6.0,91,0.10,,,0.48,WUHU216DAVISVP2,2013-03-06 04:33:00,
2013-03-05 23:38:00,42.8,40.3,29.57,East,83,4.0,7.0,91,0.08,,,0.48,WUHU216DAVISVP2,2013-03-06 04:38:00,
2013-03-05 23:43:00,42.8,40.3,29.57,East,92,0.0,7.0,91,0.08,,,0.48,WUHU216DAVISVP2,2013-03-06 04:43:00,
2013-03-05 23:48:00,42.6,40.1,29.55,WSW,239,1.0,8.0,91,0.08,,,0.48,WUHU216DAVISVP2,2013-03-06 04:48:00,
2013-03-05 23:53:00,42.8,40.3,29.55,East,88,0.0,8.0,91,0.00,,,0.48,WUHU216DAVISVP2,2013-03-06 04:53:00,
2013-03-05 23:58:00,42.8,40.3,29.55,East,99,2.0,6.0,91,0.00,,,0.48,WUHU216DAVISVP2,2013-03-06 04:58:00,